Location: Lafig�re
(44.4503°N, 4.0357°E)
Time: 06:47:12
(UTC+00:00)

Cosmos 1125 Rocket - Pass Details

Date: 24 January 2021
Orbit: 757 x 780 km, 74.0° (Epoch: 06 March)

Event Time Altitude Azimuth Distance (km) Brightness Sun altitude
Exits shadow 05:09:02 - 348° (NNW) 2,810 6.2 -21.5°
Reaches altitude 10° 05:10:21 10° 353° (N) 2,337 5.9 -21.3°
Maximum altitude 05:15:19 39° 62° (ENE) 1,167 4.8 -20.4°
Drops below altitude 10° 05:20:15 10° 130° (SE) 2,330 6.8 -19.5°
Sets 05:22:47 0° 138° (SE) 3,254 7.6 -19.1°
